This is the latest recevied weather packets stored in our database for station/object 9A7DI-13. If no packets are shown the sender has not sent any weather packets the latest 10 day(s).
| Time | Temp. | Humidity | Pressure | Rain* | Wind** | Luminosity | Snow |
|---|---|---|---|---|---|---|---|
| 1777650436 | 17.78° C | 28% | 1033 hPa | - | - | - | - |
| 1777649836 | 18.33° C | 28% | 1033 hPa | - | - | - | - |
| 1777649236 | 17.78° C | 28% | 1033.1 hPa | - | - | - | - |
| 1777648636 | 17.78° C | 29% | 1033.2 hPa | - | - | - | - |
| 1777648036 | 17.78° C | 28% | 1033.3 hPa | - | - | - | - |
| 1777647436 | 18.89° C | 26% | 1033.2 hPa | - | - | - | - |
| 1777646836 | 18.33° C | 26% | 1033.3 hPa | - | - | - | - |
| 1777646236 | 18.33° C | 27% | 1033.4 hPa | - | - | - | - |
| 1777645636 | 18.33° C | 26% | 1033.5 hPa | - | - | - | - |
| 1777645036 | 18.33° C | 26% | 1033.6 hPa | - | - | - | - |
| 1777644436 | 18.33° C | 29% | 1033.8 hPa | - | - | - | - |
| 1777643836 | 17.78° C | 26% | 1033.8 hPa | - | - | - | - |
| 1777643236 | 18.33° C | 26% | 1034 hPa | - | - | - | - |
| 1777642636 | 18.89° C | 26% | 1034 hPa | - | - | - | - |
| 1777642036 | 18.33° C | 27% | 1034.1 hPa | - | - | - | - |
| 1777641436 | 18.33° C | 28% | 1034.2 hPa | - | - | - | - |
| 1777640836 | 18.33° C | 30% | 1034.3 hPa | - | - | - | - |
| 1777640236 | 17.78° C | 27% | 1034.5 hPa | - | - | - | - |
| 1777639636 | 17.78° C | 27% | 1034.5 hPa | - | - | - | - |
| 1777639036 | 17.78° C | 31% | 1034.6 hPa | - | - | - | - |
| 1777638436 | 17.78° C | 28% | 1034.7 hPa | - | - | - | - |
| 1777637836 | 17.78° C | 27% | 1034.8 hPa | - | - | - | - |
| 1777637236 | 17.78° C | 28% | 1034.9 hPa | - | - | - | - |
| 1777636636 | 17.78° C | 27% | 1034.9 hPa | - | - | - | - |
| 1777636036 | 17.78° C | 28% | 1035.1 hPa | - | - | - | - |
* Rain since midnight (hover to see other rain measurements)
** Current wind speed in m/s (hover to see current wind gust speed)